Rangeley, Maine, United States (04970)
Lat: 44.97N, Lon: 70.64W
Wx Zone: MEZ008
Local Info
Past Weather Observations for Today

NOTE: This archive is for the closest National Weather Service station to Rangeley. Information may differ from the station used for current weather conditions.

Click here for Long-term Archive

Time Weather Temperature Dewpoint Humidity Pressure Winds Precip Visibility
09:52
Partly Cloudy
73°F / 23°C 55°F / 13°C 53% 29.95 in
(1014 mb)
SW 6.9 mph
(SW 11 kph)
- 10SM
08:52
Mostly Cloudy
72°F / 22°C 55°F / 13°C 57% 29.95 in
(1014 mb)
Calm - 10SM
07:52
Clear
66°F / 19°C 59°F / 15°C 78% 29.95 in
(1014 mb)
Calm - 8SM
06:52
Clear
Fog And Mist
57°F / 14°C 55°F / 13°C 94% 29.95 in
(1014 mb)
Calm - 5SM
06:26
Partly Cloudy
Fog And Mist
54°F / 12°C 54°F / 12°C 100% 29.95 in
(1014 mb)
Calm - 4SM
06:22
Mostly Cloudy
Fog And Mist
54°F / 12°C 54°F / 12°C 100% 29.95 in
(1014 mb)
Calm - 2SM
06:18
Obscured
Fog And Mist
54°F / 12°C 54°F / 12°C 100% 29.95 in
(1014 mb)
Calm - 1SM
05:52
Obscured
Fog
52°F / 11°C 52°F / 11°C 100% 29.95 in
(1014 mb)
Calm - M1/4SM
04:52
Obscured
Fog
48°F / 9°C 48°F / 9°C 100% 29.95 in
(1014 mb)
Calm - M1/4SM
04:31
Obscured
Fog
48°F / 9°C 48°F / 9°C 100% 29.98 in
(1015 mb)
Calm - M1/4SM
04:21
Obscured
Fog And Mist
50°F / 10°C 48°F / 9°C 94% 29.98 in
(1015 mb)
Calm - 3/4SM
04:16
Mostly Cloudy
Fog And Mist
48°F / 9°C 46°F / 8°C 94% 29.98 in
(1015 mb)
Calm - 1 3/4SM
04:10
Mostly Cloudy
Fog And Mist
48°F / 9°C 46°F / 8°C 94% 29.95 in
(1014 mb)
Calm - 5SM
03:52
Partly Cloudy
Fog And Mist
50°F / 10°C 48°F / 9°C 94% 29.95 in
(1014 mb)
Calm - 5SM
03:48
Partly Cloudy
Fog And Mist
50°F / 10°C 48°F / 9°C 94% 29.95 in
(1014 mb)
Calm - 5SM
03:36
Mostly Cloudy
Fog And Mist
48°F / 9°C 48°F / 9°C 100% 29.98 in
(1015 mb)
SSE 3.5 mph
(SSE 6 kph)
- 4SM
03:29
Overcast
Fog And Mist
48°F / 9°C 48°F / 9°C 100% 29.95 in
(1014 mb)
Calm - 2SM
03:20
Overcast
Fog And Mist
50°F / 10°C 48°F / 9°C 94% 29.95 in
(1014 mb)
Calm - 1 1/4SM
03:06
Overcast
Fog And Mist
48°F / 9°C 48°F / 9°C 100% 29.95 in
(1014 mb)
Calm - 6SM
02:52
Mostly Cloudy
Fog And Mist
50°F / 10°C 48°F / 9°C 94% 29.95 in
(1014 mb)
Calm - 5SM
02:40
Mostly Cloudy
Fog And Mist
50°F / 10°C 48°F / 9°C 94% 29.95 in
(1014 mb)
Calm - 5SM
02:06
Partly Cloudy
Fog And Mist
50°F / 10°C 48°F / 9°C 94% 29.95 in
(1014 mb)
Calm - 5SM
01:52
Partly Cloudy
Fog And Mist
50°F / 10°C 50°F / 10°C 100% 29.95 in
(1014 mb)
Calm - 5SM
00:52
Mostly Cloudy
Fog And Mist
52°F / 11°C 52°F / 11°C 100% 29.98 in
(1015 mb)
Calm - 5SM
Time Weather Temperature Dewpoint Humidity Pressure Winds Precip Visibility


Weather for websites

WeatherForYou.com, LLC is not responsible for any damages or problems caused by this service. Current weather conditions are obtained from the closest station including government and personal stations which may have varying degrees of accuracy. Weather forecasts are derived from the NOAA NDFD. Like all things, this site belongs to Jesus Christ... He just trusts me to maintain it. If you have any questions or comments email webmaster@weatherforyou.com

Copyright © 2014, WeatherForYou.com LLC. All rights reserved.